TimeCDT,TemperatureF,Dew PointF,Humidity,Sea Level PressureIn,VisibilityMPH,Wind Direction,Wind SpeedMPH,Gust SpeedMPH,PrecipitationIn,Events,Conditions,WindDirDegrees,DateUTC
12:53 AM,34.0,28.9,82,30.20,10.0,NW,4.6,-,N/A,,Clear,320,2012-10-06 05:53:00
1:53 AM,34.0,27.0,75,30.21,10.0,NW,4.6,-,N/A,,Clear,320,2012-10-06 06:53:00
2:53 AM,33.1,26.1,75,30.21,10.0,NW,5.8,-,N/A,,Clear,320,2012-10-06 07:53:00
3:53 AM,34.0,25.0,70,30.22,10.0,NW,4.6,-,N/A,,Clear,320,2012-10-06 08:53:00
4:53 AM,34.0,25.0,70,30.22,10.0,NW,4.6,-,N/A,,Clear,310,2012-10-06 09:53:00
5:53 AM,32.0,25.0,75,30.24,10.0,West,3.5,-,N/A,,Clear,280,2012-10-06 10:53:00
6:53 AM,30.9,25.0,79,30.25,10.0,Calm,Calm,-,N/A,,Clear,0,2012-10-06 11:53:00
7:53 AM,30.0,26.1,85,30.26,10.0,Calm,Calm,-,N/A,,Clear,0,2012-10-06 12:53:00
8:53 AM,34.0,26.1,73,30.27,10.0,WNW,5.8,-,N/A,,Clear,300,2012-10-06 13:53:00
9:53 AM,37.0,27.0,67,30.28,10.0,NW,8.1,-,N/A,,Clear,310,2012-10-06 14:53:00
10:53 AM,39.9,28.9,65,30.28,10.0,NW,9.2,-,N/A,,Clear,320,2012-10-06 15:53:00
11:53 AM,42.1,30.0,62,30.28,10.0,NW,9.2,17.3,N/A,,Scattered Clouds,320,2012-10-06 16:53:00
12:10 PM,42.8,30.2,61,30.26,10.0,NW,12.7,18.4,N/A,,Mostly Cloudy,310,2012-10-06 17:10:00
12:19 PM,42.8,30.2,61,30.26,10.0,NW,10.4,18.4,N/A,,Partly Cloudy,310,2012-10-06 17:19:00
12:53 PM,43.0,28.9,58,30.28,10.0,NW,10.4,18.4,N/A,,Mostly Cloudy,310,2012-10-06 17:53:00
1:53 PM,43.0,28.0,56,30.26,10.0,NW,13.8,19.6,N/A,,Mostly Cloudy,320,2012-10-06 18:53:00
2:53 PM,44.1,28.0,53,30.25,10.0,NNW,9.2,-,N/A,,Overcast,330,2012-10-06 19:53:00
3:53 PM,45.0,28.9,53,30.24,10.0,NW,8.1,-,N/A,,Overcast,310,2012-10-06 20:53:00
4:53 PM,45.0,28.0,52,30.24,10.0,NNW,9.2,-,N/A,,Overcast,330,2012-10-06 21:53:00
5:53 PM,45.0,27.0,49,30.24,10.0,NNW,10.4,-,N/A,,Overcast,340,2012-10-06 22:53:00
6:53 PM,43.0,28.0,56,30.25,10.0,NNW,5.8,-,N/A,,Overcast,330,2012-10-06 23:53:00
7:53 PM,43.0,28.0,56,30.25,10.0,NNW,6.9,-,N/A,,Overcast,330,2012-10-07 00:53:00
8:53 PM,42.1,28.9,60,30.26,10.0,NNW,3.5,-,N/A,,Overcast,330,2012-10-07 01:53:00
9:53 PM,41.0,30.9,67,30.27,10.0,West,3.5,-,N/A,,Overcast,270,2012-10-07 02:53:00
10:53 PM,41.0,30.9,67,30.27,10.0,West,4.6,-,N/A,,Overcast,280,2012-10-07 03:53:00
11:53 PM,39.9,30.0,68,30.26,10.0,WNW,5.8,-,N/A,,Overcast,300,2012-10-07 04:53:00